Home > Weather > Dharmapuri > Past weeks

Flag for India Past Weather in Dharmapuri, Tamil Nadu, India — Yesterday and Last 2 Weeks

Now
73 °F

Partly cloudy.


Feels Like: 73 °F
Forecast: 75 / 84 °F
Wind: 16 mph from Southwest

Location: Bangalore / Hindustan

Current Time: Jun 28, 2016 at 8:44:44 PM

Latest Report: Jun 28, 2016 at 7:30 PM


Visibility: N/A

Pressure: 29.83 "Hg

Humidity: 83%

Dew Point: 68 °F

Location of DharmapuriLocation

Past Weather in Dharmapuri — Graph

°F

Dharmapuri Temperature Yesterday

Maximum temperature yesterday: 82 °F (at 12:30 PM)
Minimum temperature yesterday: 70 °F (at 5:30 AM)
Average temperature yesterday: 75 °F

High & Low Weather Summary for the Past Weeks

 TemperatureHumidityPressure
High86 °F (Jun 15, 2:30 PM)100% (Jun 23, 8:30 AM)29.98 "Hg (Jun 23, 8:30 AM)
Low68 °F (Jun 20, 5:30 AM)46% (Jun 15, 5:00 PM)29.74 "Hg (Jun 16, 4:00 PM)
Average76 °F75%29.84 "Hg
* Reported Jun 13 6:30 PM — Jun 28 6:30 PM, Dharmapuri, Weather by CustomWeather, © 2016

Note: Actual official high and low records may vary slightly from our data, if they occured in-between our weather recording intervals... More about our weather records

Advertising

Dharmapuri Weather History for the Previous 24 Hours

Scroll right to see more
 ConditionsComfort  
Time TempWeatherWind HumidityBarometerVisibility
6:30 PM
Tue, Jun 28
75 °FBroken clouds.14 mph78%29.80 "HgN/A
5:30 PM77 °FBroken clouds.14 mph74%29.77 "HgN/A
5:00 PM77 °FScattered clouds.16 mph74%29.77 "HgN/A
4:30 PM77 °FScattered clouds.16 mph79%29.77 "HgN/A
4:00 PM77 °FScattered clouds.16 mph79%29.77 "HgN/A
3:30 PM79 °FScattered clouds.16 mph70%29.77 "Hg5 mi
3:00 PM79 °FScattered clouds.13 mph74%29.80 "Hg5 mi
2:00 PM79 °FScattered clouds.16 mph70%29.80 "Hg5 mi
1:30 PM79 °FScattered clouds.16 mph74%29.83 "Hg5 mi
1:00 PM79 °FScattered clouds.12 mph74%29.83 "Hg5 mi
12:30 PM77 °FBroken clouds.12 mph83%29.83 "Hg5 mi
12:00 PM73 °FDrizzle. Broken clouds.9 mph89%29.86 "Hg5 mi
11:30 AM75 °FBroken clouds.12 mph78%29.86 "Hg5 mi
11:00 AM75 °FBroken clouds.10 mph83%29.86 "Hg5 mi
10:30 AM73 °FDrizzle. Broken clouds.12 mph89%29.86 "Hg5 mi
10:00 AM73 °FBroken clouds.9 mph83%29.86 "Hg5 mi
9:30 AM73 °FBroken clouds.9 mph83%29.86 "Hg5 mi
9:00 AM73 °FBroken clouds.9 mph83%29.86 "Hg5 mi
8:30 AM72 °FBroken clouds.9 mph88%29.83 "Hg5 mi
8:00 AM70 °FBroken clouds.9 mph94%29.83 "Hg5 mi
7:30 AM72 °FBroken clouds.9 mph88%29.83 "Hg5 mi
7:00 AM70 °FBroken clouds.12 mph94%29.83 "Hg5 mi
6:30 AM70 °FBroken clouds.12 mph94%29.80 "Hg5 mi
6:00 AM70 °FPartly cloudy.12 mph94%29.80 "Hg5 mi
5:30 AM70 °FPassing clouds.12 mph94%29.80 "HgN/A
11:30 PM
Mon, Jun 27
72 °FPassing clouds.14 mph88%29.86 "HgN/A
10:30 PM72 °FPassing clouds.12 mph83%29.86 "HgN/A
9:30 PM73 °FPassing clouds.12 mph78%29.83 "HgN/A
8:30 PM73 °FPassing clouds.12 mph78%29.83 "HgN/A
Weather by CustomWeather, © 2016

See weather overviewHow to use our weather pages